Temp
76 78 80 80 80 80 80 79 79 79 79 79 79 79 79 79 79 80 80 79 79 80 80 80 80 80 80 80 80 79 79 80 80 80 80 80 80 80 79 79 79 78 78
77 79 80 80 80 80 79 79 79 79 79 79 79 79 79 79 79 79 79 79 80 80 80 80 80 80 80 80 80 80 80 79 80 80 80 80 80 80 80 79 78 77 78
77 78 80 80 80 80 79 79 78 78 78 78 78 78 78 78 79 79 79 79 80 80 80 80 80 80 80 80 80 80 79 79 79 80 80 76 77 80 80 79 79 78 77
78 77 79 80 80 80 79 78 78 78 78 78 78 78 78 78 79 79 79 79 80 80 81 80 80 80 80 80 80 79 79 79 79 80 77 80 81 80 80 79 79 78 77
78 78 78 80 80 79 79 78 78 78 78 78 78 78 78 78 78 78 79 79 80 81 81 80 80 80 80 79 79 79 79 79 80 80 77 77 75 80 80 79 79 78 78
77 78 79 79 79 79 79 79 78 78 78 78 78 78 78 78 78 78 78 79 80 80 80 80 79 79 79 79 78 78 78 79 79 76 77 78 76 79 79 79 79 78 77
77 77 78 79 79 79 79 79 78 78 78 78 78 78 78 78 78 78 78 79 79 80 80 79 79 78 78 78 78 78 78 79 76 74 77 77 76 77 79 79 79 78 78
78 77 78 79 79 79 79 79 78 78 78 78 78 78 78 78 78 78 78 78 79 79 79 79 78 78 77 77 78 77 78 79 78 73 76 76 76 77 79 79 78 78 78
79 76 77 78 78 79 78 78 78 78 78 78 78 77 77 77 77 78 78 78 78 78 78 78 77 77 77 77 77 77 77 78 73 71 77 75 78 78 80 79 78 78 78
76 76 77 78 79 76 77 78 78 78 77 77 77 77 77 77 77 77 76 77 78 78 78 77 77 77 76 76 76 76 77 78 71 70 71 74 77 79 80 79 78 78 78
76 74 76 78 79 78 77 77 77 78 78 77 77 77 75 73 74 75 76 77 78 77 77 77 77 76 76 76 76 76 78 70 69 71 71 76 78 79 80 79 78 78 78
74 73 73 75 76 77 79 78 75 76 75 75 74 74 72 71 71 75 76 77 77 77 77 77 77 76 76 70 69 74 70 70 71 71 72 78 79 80 80 79 79 78 78
76 76 73 72 72 73 76 78 76 76 75 73 72 72 70 71 71 71 70 72 72 76 72 73 72 71 70 69 69 68 71 71 71 72 76 78 79 80 80 80 79 78 78
75 75 75 74 73 73 72 72 71 72 71 70 70 71 69 67 68 69 69 70 70 70 70 69 67 68 69 71 70 72 73 72 71 72 72 78 77 79 80 80 80 79 78
69 70 74 75 74 72 71 70 69 69 69 70 69 70 69 67 67 69 70 70 70 69 69 69 68 70 70 71 72 73 74 76 75 74 71 78 77 78 80 80 80 80 79
69 68 69 74 76 74 72 71 72 71 71 70 71 72 71 69 69 70 70 71 69 71 72 71 71 69 69 69 70 72 74 73 75 75 72 71 76 76 78 80 80 80 80
68 70 69 73 72 74 74 73 74 74 75 74 75 74 74 71 71 72 71 71 73 73 73 73 71 70 70 71 71 74 74 75 74 74 74 75 75 76 77 78 79 79 79
70 71 71 71 70 69 73 73 74 76 76 77 76 75 76 75 73 72 73 73 73 72 71 69 68 69 68 68 69 71 71 73 74 74 74 74 72 75 75 77 77 77 77
70 70 70 70 70 69 69 71 76 76 77 79 74 73 76 77 78 74 75 72 72 68 67 67 66 67 65 67 71 71 70 71 71 75 73 72 71 72 70 74 74 74 73
68 69 70 71 70 72 68 71 73 74 79 75 77 78 78 78 78 76 74 72 71 67 67 67 66 64 63 63 71 72 67 67 68 68 70 72 70 70 68 69 67 67 73
67 69 70 69 73 70 67 69 71 74 74 76 77 79 79 79 79 78 78 72 70 67 67 67 64 64 63 66 65 67 66 67 66 67 68 68 70 70 68 68 66 65 66
65 68 71 71 70 70 67 69 70 78 78 78 77 76 78 79 78 76 72 72 69 69 68 67 67 66 66 66 63 61 60 63 63 65 65 68 68 66 68 69 67 67 66
65 67 70 72 74 74 70 72 71 73 72 74 74 74 76 78 76 75 72 71 71 69 68 69 69 68 63 64 65 63 56 56 57 62 64 66 66 65 64 66 67 68 68
67 70 71 71 68 69 68 69 72 73 72 78 79 79 74 76 75 74 72 71 70 69 68 69 71 67 64 62 62 64 62 61 58 57 60 63 63 66 63 63 65 67 66
72 70 70 72 70 72 70 71 73 71 70 69 69 71 71 71 72 73 72 71 70 69 68 66 68 65 64 62 62 60 59 58 58 56 55 59 59 62 63 63 63 64 66
69 73 74 74 72 70 73 71 71 69 68 67 67 69 68 69 70 71 72 71 69 68 67 67 67 65 64 63 62 60 60 59 56 55 53 55 56 59 62 63 63 63 64
MSLP
1009.67 1009.36 1009.39 1009.42 1009.69 1009.96 1010.16 1010.51 1010.92 1011.17 1011.37 1011.59 1011.84 1012.18 1012.41 1012.50 1012.70 1012.98 1013.17 1013.27 1013.49 1013.65 1013.70 1013.74 1013.83 1014.00 1014.25 1014.37 1014.45 1014.53 1014.72 1014.90 1015.08 1015.26 1015.26 1015.32 1015.28 1015.12 1015.27 1015.45 1015.65 1015.71 1015.74
1008.66 1009.35 1009.59 1009.53 1009.55 1009.69 1010.21 1010.64 1011.08 1011.43 1011.58 1011.82 1012.11 1012.37 1012.63 1012.81 1012.95 1013.13 1013.39 1013.54 1013.56 1013.78 1013.84 1013.89 1014.00 1014.12 1014.29 1014.42 1014.55 1014.70 1014.93 1015.09 1015.21 1015.36 1015.40 1015.42 1015.48 1015.47 1015.49 1015.59 1015.81 1015.90 1016.00
1008.52 1008.96 1009.35 1009.60 1009.75 1009.83 1010.10 1010.63 1011.00 1011.42 1011.84 1012.09 1012.42 1012.68 1012.91 1013.11 1013.24 1013.26 1013.51 1013.76 1013.79 1013.85 1013.94 1014.00 1014.15 1014.27 1014.34 1014.43 1014.67 1014.95 1015.18 1015.27 1015.42 1015.45 1015.51 1015.55 1015.63 1015.62 1015.66 1015.70 1015.84 1015.97 1016.07
1008.02 1008.77 1009.21 1009.50 1009.64 1009.85 1010.18 1010.54 1010.91 1011.28 1011.73 1012.11 1012.43 1012.74 1013.06 1013.37 1013.43 1013.43 1013.46 1013.77 1013.90 1013.94 1014.10 1014.10 1014.23 1014.39 1014.44 1014.53 1014.77 1015.04 1015.24 1015.35 1015.45 1015.38 1015.40 1015.50 1015.58 1015.74 1015.69 1015.76 1015.99 1016.02 1016.04
1008.16 1008.72 1009.03 1009.49 1009.85 1009.91 1010.32 1010.53 1010.84 1011.23 1011.73 1011.94 1012.35 1012.74 1013.11 1013.39 1013.49 1013.60 1013.74 1013.81 1014.00 1013.99 1014.18 1014.24 1014.40 1014.58 1014.68 1014.70 1014.86 1015.06 1015.17 1015.28 1015.35 1015.23 1015.22 1015.32 1015.64 1015.73 1015.73 1015.70 1015.71 1015.97 1016.18
1007.74 1008.59 1009.02 1009.28 1009.89 1009.97 1010.28 1010.67 1011.01 1011.17 1011.60 1011.88 1012.13 1012.70 1013.04 1013.42 1013.62 1013.74 1013.94 1014.03 1014.14 1014.14 1014.30 1014.47 1014.62 1014.79 1014.92 1014.95 1014.91 1015.00 1015.06 1015.18 1015.25 1015.21 1014.94 1014.96 1015.51 1015.55 1015.54 1015.62 1015.66 1015.86 1016.13
1007.09 1008.08 1008.86 1009.02 1009.42 1009.82 1010.21 1010.57 1010.91 1011.32 1011.56 1011.85 1011.95 1012.47 1012.90 1013.33 1013.78 1013.99 1014.09 1014.17 1014.29 1014.37 1014.47 1014.68 1014.83 1015.02 1015.10 1014.98 1014.84 1014.88 1014.92 1014.97 1015.09 1015.22 1015.14 1015.12 1015.44 1015.31 1015.37 1015.46 1015.57 1015.73 1015.94
1006.19 1007.61 1008.76 1009.30 1009.24 1009.50 1010.21 1010.66 1011.03 1011.29 1011.81 1012.16 1012.28 1012.41 1012.85 1013.34 1013.74 1014.00 1014.15 1014.32 1014.43 1014.57 1014.71 1014.83 1015.04 1015.18 1015.13 1015.02 1015.00 1015.07 1015.12 1014.99 1014.98 1015.21 1015.10 1015.03 1015.26 1015.50 1015.18 1015.31 1015.40 1015.60 1015.75
1007.13 1007.77 1008.72 1009.28 1009.65 1009.80 1010.26 1010.79 1011.31 1011.59 1012.06 1012.38 1012.74 1012.92 1013.20 1013.56 1013.85 1014.05 1014.15 1014.29 1014.50 1014.73 1014.91 1014.97 1015.09 1015.19 1015.13 1015.11 1015.18 1015.19 1015.14 1014.92 1014.99 1015.06 1015.07 1014.97 1014.95 1015.31 1015.37 1015.16 1015.07 1015.18 1015.56
1007.41 1008.31 1008.94 1009.49 1009.92 1010.35 1010.45 1010.65 1011.13 1011.54 1011.99 1012.49 1012.80 1013.04 1013.40 1013.69 1013.92 1014.03 1014.16 1014.24 1014.43 1014.69 1014.92 1015.00 1015.03 1015.10 1015.21 1015.18 1015.23 1015.29 1015.17 1015.17 1015.14 1015.02 1015.21 1015.10 1014.91 1015.14 1015.19 1015.12 1015.01 1015.11 1015.15
1007.98 1008.55 1009.00 1009.62 1009.98 1010.47 1010.75 1010.70 1010.89 1011.22 1011.73 1012.25 1012.81 1013.02 1013.39 1013.75 1013.88 1013.99 1014.07 1014.23 1014.46 1014.61 1014.77 1014.90 1015.02 1015.14 1015.13 1015.16 1015.18 1015.19 1015.20 1015.14 1015.18 1015.02 1014.89 1014.96 1014.88 1014.90 1014.80 1014.93 1014.94 1014.89 1014.87
1008.55 1009.50 1009.98 1010.19 1010.45 1010.40 1010.81 1011.06 1011.47 1011.57 1012.05 1012.42 1012.76 1013.12 1013.44 1013.79 1013.86 1013.89 1013.99 1014.16 1014.34 1014.58 1014.67 1014.68 1014.87 1014.96 1014.96 1015.14 1015.20 1015.17 1015.20 1015.08 1015.03 1014.86 1014.72 1014.47 1014.38 1014.42 1014.63 1014.91 1014.93 1014.78 1014.73
1008.58 1009.55 1010.64 1011.00 1011.20 1011.06 1011.23 1011.66 1011.97 1012.18 1012.13 1012.49 1012.73 1013.03 1013.36 1013.75 1013.95 1013.98 1014.22 1014.17 1014.23 1014.36 1014.56 1014.56 1014.71 1014.76 1014.91 1014.98 1014.87 1014.91 1014.93 1014.91 1014.82 1014.51 1014.31 1014.06 1013.83 1014.03 1014.39 1014.54 1014.46 1014.38 1014.31
1010.01 1009.92 1009.74 1010.56 1010.92 1011.14 1011.43 1011.81 1012.00 1012.24 1012.47 1012.75 1012.86 1013.06 1013.47 1013.71 1013.92 1013.94 1014.10 1014.03 1014.03 1014.10 1014.39 1014.55 1014.72 1014.87 1014.84 1014.62 1014.83 1014.89 1014.64 1014.55 1014.61 1014.48 1014.11 1013.75 1013.52 1013.56 1013.79 1013.85 1013.85 1013.84 1013.83
1011.08 1010.67 1010.80 1010.67 1011.27 1011.92 1011.96 1011.92 1012.41 1012.73 1012.64 1012.75 1013.02 1013.13 1013.28 1013.75 1013.91 1013.67 1013.72 1013.76 1013.83 1013.94 1014.06 1014.28 1014.63 1014.84 1014.77 1014.78 1014.77 1014.56 1014.23 1014.07 1014.08 1014.11 1014.02 1013.63 1013.43 1013.40 1013.40 1013.42 1013.37 1013.32 1013.24
1011.88 1011.64 1011.39 1011.37 1011.90 1011.72 1012.10 1011.99 1012.17 1012.29 1012.46 1012.74 1012.70 1012.77 1012.79 1013.26 1013.56 1013.53 1013.62 1013.52 1013.59 1013.54 1013.42 1013.77 1014.17 1014.40 1014.50 1014.37 1014.42 1014.01 1013.80 1013.83 1013.68 1013.99 1013.74 1013.63 1013.45 1013.25 1013.02 1012.89 1012.84 1012.69 1012.77
1011.59 1011.50 1011.70 1012.31 1012.48 1012.33 1012.10 1012.30 1012.19 1011.98 1012.34 1012.56 1012.38 1012.59 1012.53 1012.55 1012.69 1013.00 1013.16 1013.27 1013.16 1013.03 1013.08 1013.32 1013.58 1013.72 1013.93 1014.03 1014.19 1014.14 1013.79 1013.55 1013.50 1013.72 1013.73 1013.50 1013.18 1012.84 1012.76 1012.48 1012.59 1012.76 1012.74
1009.82 1009.88 1011.09 1012.21 1013.49 1012.98 1012.47 1012.11 1012.10 1012.04 1012.22 1012.37 1012.18 1012.20 1012.41 1012.36 1012.25 1012.60 1012.85 1012.78 1012.73 1012.88 1012.98 1013.32 1013.54 1013.65 1013.80 1014.17 1014.17 1013.85 1013.85 1013.34 1013.49 1013.53 1013.41 1013.07 1012.79 1012.65 1012.68 1012.37 1012.11 1012.24 1012.18
1009.20 1009.64 1010.20 1011.84 1012.91 1012.24 1012.23 1012.18 1012.20 1011.64 1011.78 1011.60 1011.73 1011.70 1011.78 1011.71 1011.62 1011.89 1012.33 1012.40 1012.56 1012.86 1013.17 1013.37 1013.35 1013.53 1014.07 1013.96 1013.49 1013.56 1013.91 1013.75 1013.85 1013.56 1013.37 1013.37 1013.05 1012.89 1012.75 1012.68 1012.25 1012.11 1012.21
1009.82 1009.57 1009.39 1009.50 1011.01 1010.74 1010.62 1010.94 1012.25 1012.27 1011.56 1011.75 1011.34 1010.82 1010.91 1011.15 1011.21 1011.59 1011.90 1012.15 1012.07 1012.86 1013.17 1013.31 1013.43 1013.49 1013.79 1014.09 1013.81 1013.99 1014.12 1014.10 1013.98 1013.89 1013.67 1013.48 1013.26 1012.97 1012.78 1012.71 1012.57 1012.18 1011.93
1009.82 1009.74 1009.66 1009.63 1009.35 1009.81 1010.09 1010.57 1010.74 1011.76 1010.88 1010.92 1010.61 1010.16 1010.07 1010.56 1010.65 1010.99 1011.49 1011.72 1012.06 1012.36 1012.81 1012.88 1013.35 1013.90 1013.99 1013.94 1014.20 1014.06 1013.89 1013.58 1013.70 1013.75 1013.82 1013.64 1013.21 1012.72 1012.55 1012.35 1012.15 1012.08 1011.81
1009.17 1009.91 1009.48 1009.00 1009.28 1009.68 1009.98 1010.03 1009.93 1010.68 1010.23 1009.18 1009.40 1009.58 1009.51 1009.96 1010.02 1010.55 1010.93 1011.33 1011.77 1012.31 1012.80 1012.96 1013.19 1013.68 1013.92 1013.83 1014.21 1014.53 1014.66 1014.38 1014.29 1014.16 1013.81 1013.32 1013.31 1012.89 1012.27 1011.95 1011.88 1011.72 1011.64
1008.28 1008.54 1008.98 1008.65 1008.45 1009.04 1009.21 1009.06 1009.57 1009.68 1010.10 1009.09 1008.67 1008.94 1009.32 1009.57 1009.60 1009.83 1010.43 1010.88 1011.31 1011.74 1012.15 1012.39 1012.72 1013.12 1013.74 1013.96 1013.72 1014.02 1014.81 1015.07 1015.11 1014.47 1013.86 1013.51 1013.38 1013.14 1012.71 1012.08 1012.13 1011.79 1011.42
1006.97 1008.05 1008.57 1008.81 1009.00 1008.90 1009.08 1009.57 1009.65 1009.68 1009.81 1008.96 1008.37 1008.65 1009.09 1009.17 1009.30 1009.39 1010.01 1010.53 1010.80 1010.92 1011.28 1011.41 1012.10 1012.57 1012.53 1013.46 1013.48 1013.45 1013.89 1014.38 1015.08 1015.23 1014.55 1013.97 1013.57 1013.23 1012.87 1012.22 1012.06 1011.92 1011.41
1006.41 1007.12 1007.45 1008.13 1008.49 1008.35 1008.72 1008.94 1009.18 1009.38 1009.28 1009.02 1008.73 1008.83 1008.93 1009.23 1009.16 1009.34 1009.56 1009.86 1010.06 1010.56 1010.89 1011.31 1011.57 1012.22 1012.31 1012.27 1012.89 1013.58 1013.99 1014.10 1014.59 1015.23 1015.28 1014.53 1014.04 1013.38 1012.82 1012.43 1012.22 1012.07 1011.46
1005.54 1006.06 1006.36 1007.33 1007.89 1007.87 1008.10 1008.75 1008.87 1008.92 1009.04 1009.25 1009.32 1009.10 1009.14 1008.88 1008.90 1008.97 1009.09 1009.45 1009.78 1010.15 1010.30 1010.72 1011.02 1011.62 1011.48 1011.54 1012.34 1012.77 1013.50 1013.99 1014.51 1014.86 1015.29 1014.97 1014.61 1013.70 1012.92 1012.27 1012.11 1011.97 1011.63
Wind_Speed
7 10 16 17 18 18 18 18 17 17 17 17 16 16 16 16 16 15 15 15 14 13 14 15 14 13 13 13 13 13 12 12 13 13 12 11 11 14 16 14 13 9 12
15 11 15 17 19 20 18 17 16 16 16 16 15 15 15 14 14 14 14 13 13 14 14 14 13 12 11 11 11 12 11 10 10 10 10 10 9 11 13 13 13 9 11
15 13 14 18 18 19 19 18 17 16 16 16 15 14 14 13 13 14 13 12 13 14 13 13 12 11 10 8 9 10 9 9 8 5 5 4 4 9 12 13 12 12 11
17 13 13 19 19 19 19 18 17 17 17 17 16 15 14 12 13 13 13 12 12 14 13 12 12 10 9 6 7 8 7 7 5 2 2 3 4 8 11 12 11 11 10
14 11 13 18 18 19 19 18 18 18 17 18 17 16 15 13 12 11 11 11 12 13 12 11 10 9 7 5 5 5 5 5 5 3 3 5 4 8 10 11 10 9 8
15 11 15 20 18 19 19 18 17 18 18 18 18 16 15 13 11 11 10 10 10 12 11 10 9 8 6 3 3 3 4 5 5 4 5 8 6 10 12 11 10 10 9
17 10 13 20 21 19 19 19 18 17 17 17 17 16 15 13 11 10 9 9 9 10 10 9 8 6 4 3 2 2 3 5 4 5 5 6 4 12 12 12 11 10 10
19 15 11 16 20 20 19 18 17 17 16 15 15 15 14 13 12 10 9 8 8 8 8 8 7 5 4 3 4 4 6 6 3 1 3 4 6 10 13 12 12 11 10
14 14 10 11 13 18 18 17 15 15 14 14 13 13 13 12 11 10 9 8 8 7 7 7 6 6 5 5 5 5 7 8 5 1 2 1 9 11 12 13 14 13 11
12 11 12 12 11 9 11 17 16 15 15 13 13 13 12 11 10 10 9 8 8 7 7 7 7 7 6 7 7 7 9 9 5 5 2 4 10 13 13 13 13 13 12
10 10 12 13 12 12 9 11 16 18 16 15 12 12 10 4 6 8 8 8 7 7 7 7 7 6 8 8 8 9 10 3 4 4 3 6 8 15 15 14 12 12 13
10 7 7 10 11 12 7 10 7 9 7 6 6 6 4 5 5 6 7 9 8 8 8 8 8 9 8 4 3 8 3 5 4 4 4 10 11 16 14 12 12 12 12
14 10 6 4 2 5 5 6 5 4 6 4 6 5 5 4 4 3 2 3 4 8 4 5 5 4 5 4 5 4 5 5 4 3 5 13 10 12 12 14 14 14 13
3 3 12 9 7 6 5 5 4 4 3 3 4 6 4 3 4 4 3 5 4 3 5 5 3 3 6 6 4 5 6 4 3 3 5 12 11 13 15 17 15 16 14
10 7 5 4 6 1 4 3 3 2 3 4 4 5 5 4 5 4 5 4 4 4 4 4 3 3 5 4 4 6 7 6 5 3 3 11 12 13 16 15 15 17 16
8 7 7 6 4 5 5 6 5 4 5 5 5 7 8 6 5 5 4 6 4 5 5 4 4 5 5 5 6 7 7 6 6 5 4 5 12 14 14 16 17 17 16
6 9 12 13 11 3 4 4 4 5 6 6 6 8 10 8 8 7 5 5 6 6 4 5 3 4 3 3 6 4 5 6 3 4 4 4 5 13 15 17 14 13 14
11 6 10 8 11 8 7 4 4 4 5 6 6 5 9 9 7 7 5 5 4 4 4 4 4 4 3 1 2 3 4 4 5 5 4 3 2 3 2 6 7 8 6
10 12 14 7 7 7 3 6 6 7 6 7 6 6 10 11 10 7 6 4 5 4 4 3 3 2 2 3 2 3 4 3 4 2 4 4 5 3 1 2 7 7 6
11 17 16 18 15 15 4 4 5 5 9 8 8 8 11 10 11 8 5 6 6 4 4 3 3 1 3 1 3 4 4 4 2 3 3 2 1 3 5 4 4 5 10
8 12 20 20 21 9 3 3 4 9 5 5 7 10 10 11 12 10 8 5 5 6 5 4 2 1 2 1 3 3 3 4 3 4 2 3 2 3 5 4 3 4 4
11 11 17 23 17 8 4 4 5 7 9 4 4 7 9 11 11 10 7 6 6 5 5 4 5 3 3 4 4 2 3 5 3 2 3 0 3 4 6 5 5 6 6
13 17 18 17 16 12 10 4 4 5 5 3 3 3 6 10 10 9 8 6 6 5 6 6 7 8 4 3 5 5 2 4 2 3 2 2 3 2 5 5 6 7 6
16 16 15 12 11 8 7 4 9 9 10 9 6 6 6 9 8 8 7 7 6 5 6 6 4 3 4 5 1 1 1 4 3 4 3 4 3 4 5 3 5 6 6
17 19 15 15 14 15 10 10 11 11 5 2 3 6 6 5 7 6 8 7 6 4 4 6 5 8 4 4 4 3 1 1 2 3 4 4 3 4 4 2 3 4 5
10 16 17 19 12 7 12 9 11 8 6 3 2 4 3 3 4 6 7 6 6 6 7 6 6 7 5 4 4 4 4 4 4 3 2 4 4 5 3 4 3 3 3
Wind_Direction
177 165 156 143 136 130 125 123 124 121 115 111 109 108 108 108 111 111 113 118 122 117 113 114 115 115 114 112 108 101 99 101 97 96 95 93 89 76 106 105 96 91 90
150 164 157 148 142 135 131 130 129 124 120 118 117 115 112 113 114 115 117 121 121 118 117 116 116 116 115 110 104 97 95 90 92 97 98 98 101 100 105 106 105 101 95
151 158 159 153 146 139 137 136 135 132 129 127 124 121 120 123 127 125 123 125 126 125 121 120 120 118 117 111 101 94 87 82 79 88 110 112 116 119 116 113 113 111 105
149 155 161 158 151 145 145 144 144 141 139 135 133 133 134 138 137 133 132 134 133 127 127 127 125 124 123 115 98 88 80 79 73 54 239 172 159 141 128 122 121 122 121
152 160 160 156 155 150 151 150 149 146 145 143 144 145 147 149 143 138 140 139 137 131 132 130 128 128 128 118 87 72 65 57 35 14 241 179 173 163 144 131 134 134 129
151 153 166 157 162 155 155 155 154 153 153 152 151 153 154 153 149 146 146 142 140 137 137 135 133 133 136 113 71 28 20 14 25 360 352 153 175 176 159 158 147 140 144
148 142 166 163 161 160 160 159 159 159 158 159 155 157 160 158 158 154 151 146 143 142 144 143 141 139 141 150 205 278 331 355 17 10 13 136 190 183 166 157 156 157 161
142 143 162 171 163 159 162 162 163 160 161 161 159 161 162 163 165 161 155 148 147 149 154 154 149 156 170 200 251 299 315 326 344 50 338 179 196 212 175 168 166 168 179
141 136 157 168 168 161 161 161 161 158 162 163 165 165 165 166 165 162 158 155 155 158 164 161 167 184 200 223 247 269 282 287 306 304 296 190 198 208 197 185 178 177 187
136 141 156 166 168 164 163 160 162 162 164 167 171 167 166 166 165 166 168 168 166 170 178 181 191 203 218 240 254 265 271 287 296 299 277 257 208 207 214 205 189 188 186
144 151 161 166 168 170 168 169 165 167 168 170 175 170 162 162 170 178 178 184 182 188 192 198 208 217 231 243 253 262 272 264 270 277 278 261 242 213 218 214 206 198 198
150 155 157 164 171 166 169 172 168 167 165 167 167 166 155 171 176 182 191 196 199 206 205 209 215 223 235 241 267 274 264 264 260 256 273 270 251 225 219 221 219 215 212
163 163 134 122 135 152 148 174 174 179 173 170 168 162 160 169 193 194 200 207 200 216 218 218 225 225 226 230 241 242 254 251 252 246 254 268 264 208 209 222 220 223 220
77 151 148 156 164 185 143 169 166 174 169 171 179 165 167 177 199 198 201 209 203 196 209 226 232 246 249 249 258 277 258 250 269 269 271 277 203 197 213 223 223 226 224
38 18 19 173 167 161 150 147 156 202 185 186 183 192 177 191 204 190 208 203 209 188 204 222 215 257 264 284 270 247 264 262 236 266 260 268 220 212 223 231 232 232 228
31 7 10 359 227 155 186 181 189 181 193 190 191 200 193 192 208 203 210 210 204 204 208 196 183 213 239 218 250 250 254 249 238 231 256 249 240 230 228 234 238 240 239
139 92 52 4 19 295 198 217 202 198 195 204 208 209 205 197 198 208 204 197 210 215 180 174 172 159 209 216 237 271 258 263 288 282 271 249 254 241 243 244 265 280 278
197 141 78 47 328 329 338 220 223 212 202 217 216 201 213 211 202 209 211 202 175 167 164 158 195 197 232 240 220 214 238 292 280 338 310 334 314 296 354 223 237 233 228
191 135 127 112 271 256 265 340 251 223 215 213 212 194 213 212 209 198 201 191 139 152 173 189 214 201 186 249 15 8 314 331 315 360 56 43 27 18 151 40 147 162 156
174 167 157 151 196 245 203 156 295 256 216 228 217 209 208 215 211 203 195 171 155 160 174 190 237 121 68 258 349 308 256 222 161 133 72 70 120 275 278 234 258 268 261
184 172 181 176 189 218 133 167 142 246 217 211 204 209 203 209 213 212 221 161 161 151 191 206 103 141 301 281 30 293 290 345 66 110 161 210 309 301 287 291 257 281 299
170 180 184 182 190 201 185 188 171 257 242 190 200 196 198 207 204 199 185 198 163 147 188 184 177 180 210 177 165 102 340 336 359 227 214 204 309 310 308 312 282 278 284
170 187 210 204 195 207 201 174 224 233 267 233 200 209 210 211 199 193 186 179 187 164 183 198 192 205 168 234 224 140 98 230 309 319 316 241 313 304 305 319 301 283 291
199 186 206 207 212 220 166 198 222 232 232 239 231 224 211 205 198 194 171 183 197 176 188 196 204 243 146 181 156 232 132 143 168 321 308 308 316 310 310 310 306 301 298
195 192 191 197 214 225 214 218 218 217 235 286 225 240 216 213 197 184 176 176 182 187 206 191 159 212 205 142 146 147 165 152 106 135 250 294 315 289 275 265 279 295 311
168 188 181 199 213 189 198 197 195 206 212 225 261 235 215 205 203 185 185 184 182 187 186 197 192 197 186 153 163 161 168 172 184 157 179 256 252 287 286 303 295 303 314